Date String (YYYY-MM-DD hh:mm:ss) UTC,Instrument flags,absolute air pressure of the measurement (hPa),sample flow rate (lpm),inlet stack bypass flow (lpm),air temperature of the measurement (°C),ambient temperature measured by the external sensor (°C),aerosol sample conditioner tube jacket temperature (°C),OPC LED temperature (°C),internal box temperature (°C),relative humidity of the measurement (%),span deviation,mass concentration of particles derived from Lorenz-Mie calculation of OPC scattering (μg/m³),mass concentration of particles derived from Lorenz-Mie calculation of OPC scattering (μg/m³),mass concentration of particles derived from Lorenz-Mie calculation of OPC scattering (μg/m³)
DateTimeUTC,F1_M11,P_M11,Q1_M11,Q2_M11,T1_M11,T2_M11,T3_M11,T4_M11,T5_M11,U1_M11,ZSPAN_M11,X0_M11,X2_M11,X1_M11
2023-06-20 07:00:00,SystemResetWarning,0825.5,4.99,000.00,029.5,027.8,000.0,038.1,031.0,11.4,0000.0,0004.53,0002.54,0002.16
2023-06-20 07:01:00,SystemResetWarning,0825.5,5.00,000.00,029.6,027.9,000.0,038.1,031.1,10.6,0000.0,0004.67,0002.59,0002.16
2023-06-20 07:02:00,SystemResetWarning,0825.4,5.00,000.00,029.6,028.0,000.0,038.1,031.1,10.7,0000.0,0004.66,0002.59,0002.16
2023-06-20 07:03:00,SystemResetWarning,0825.4,5.00,000.00,029.6,028.0,000.0,038.1,031.1,10.5,0000.0,0004.67,0002.59,0002.15
2023-06-20 07:04:00,SystemResetWarning,0825.4,5.01,000.00,029.6,028.1,000.0,038.1,031.2,10.6,0000.0,0004.60,0002.56,0002.14
2023-06-20 07:05:00,SystemResetWarning,0825.5,5.00,000.00,029.7,028.1,000.0,038.1,031.2,11.3,0000.0,0005.19,0002.59,0002.14
2023-06-20 07:06:00,SystemResetWarning,0825.5,4.99,000.00,029.7,028.2,000.0,038.1,031.2,11.5,0000.0,0005.32,0002.56,0002.13
2023-06-20 07:07:00,SystemResetWarning,0825.5,5.00,000.00,029.7,028.2,000.0,038.1,031.2,11.1,0000.0,0005.70,0002.59,0002.14
2023-06-20 07:08:00,SystemResetWarning,0825.5,5.00,000.00,029.7,028.3,000.0,038.2,031.3,10.5,0000.0,0005.82,0002.63,0002.15
2023-06-20 07:09:00,SystemResetWarning,0825.6,5.01,000.00,029.8,028.3,000.0,038.2,031.3,10.6,0000.0,0005.33,0002.62,0002.14
2023-06-20 07:10:00,SystemResetWarning,0825.6,5.01,000.00,029.8,028.4,000.0,038.2,031.3,11.6,0000.0,0006.02,0002.64,0002.12
2023-06-20 07:11:00,SystemResetWarning,0825.6,5.00,000.00,029.8,028.4,000.0,038.2,031.4,12.1,0000.0,0006.16,0002.68,0002.13
2023-06-20 07:12:00,SystemResetWarning,0825.7,5.00,000.00,029.8,028.4,000.0,038.3,031.4,12.3,0000.0,0006.09,0002.67,0002.13
2023-06-20 07:13:00,SystemResetWarning,0825.8,4.98,000.00,029.9,027.5,000.0,038.3,031.4,13.4,0000.0,0005.98,0002.65,0002.12
2023-06-20 07:14:00,SystemResetWarning,0825.7,5.01,000.00,029.8,025.2,000.0,038.2,031.3,12.9,0000.0,0005.77,0002.61,0002.12
2023-06-20 07:15:00,SystemResetWarning,0825.7,5.02,000.00,029.8,024.8,000.0,038.1,031.2,12.3,0000.0,0005.83,0002.62,0002.12
2023-06-20 07:16:00,SystemResetWarning,0825.7,4.99,000.00,029.7,025.1,000.0,038.1,030.9,11.9,0000.0,0005.39,0002.60,0002.12
2023-06-20 07:17:00,SystemResetWarning,0825.8,5.00,000.00,029.6,025.6,000.0,038.1,030.9,12.4,0000.0,0005.54,0002.66,0002.14
2023-06-20 07:18:00,SystemResetWarning,0825.8,5.00,000.00,029.6,026.0,000.0,038.1,030.9,12.0,0000.0,0005.68,0002.76,0002.18
2023-06-20 07:19:00,SystemResetWarning,0825.8,5.01,000.00,029.6,026.4,000.0,038.1,030.9,12.2,0000.0,0005.49,0002.83,0002.21
2023-06-20 07:20:00,SystemResetWarning,0825.8,5.00,000.00,029.6,026.8,000.0,038.1,031.0,12.7,0000.0,0005.33,0002.83,0002.22
2023-06-20 07:21:00,SystemResetWarning,0825.8,5.00,000.00,029.6,027.1,000.0,038.1,031.0,12.0,0000.0,0005.06,0002.84,0002.24
2023-06-20 07:22:00,SystemResetWarning,0825.8,5.00,000.00,029.6,027.3,000.0,038.1,031.0,11.7,0000.0,0005.07,0002.91,0002.28
2023-06-20 07:23:00,SystemResetWarning,0825.8,5.00,000.00,029.6,027.5,000.0,038.1,031.1,11.6,0000.0,0005.40,0002.99,0002.30
2023-06-20 07:24:00,SystemResetWarning,0825.7,5.00,000.00,029.6,027.7,000.0,038.1,031.1,11.2,0000.0,0005.46,0003.01,0002.31
2023-06-20 07:25:00,SystemResetWarning,0825.7,5.00,000.00,029.6,027.8,000.0,038.2,031.2,11.0,0000.0,0005.74,0003.09,0002.35
2023-06-20 07:26:00,SystemResetWarning,0825.7,5.00,000.00,029.7,028.0,000.0,038.2,031.2,10.9,0000.0,0005.80,0003.11,0002.36
2023-06-20 07:27:00,SystemResetWarning,0825.8,5.00,000.00,029.7,028.1,000.0,038.2,031.2,10.9,0000.0,0006.06,0003.12,0002.37
2023-06-20 07:28:00,SystemResetWarning,0825.8,5.00,000.00,029.7,028.1,000.0,038.2,031.3,10.9,0000.0,0006.02,0003.13,0002.39
2023-06-20 07:29:00,SystemResetWarning,0825.8,5.01,000.00,029.7,028.2,000.0,038.2,031.3,11.1,0000.0,0005.91,0003.09,0002.37
2023-06-20 07:30:00,SystemResetWarning,0825.7,5.00,000.00,029.8,028.3,000.0,038.2,031.4,11.1,0000.0,0006.75,0002.97,0002.32
2023-06-20 07:31:00,SystemResetWarning,0825.8,5.00,000.00,029.8,028.4,000.0,038.2,031.4,10.8,0000.0,0006.77,0002.97,0002.33
2023-06-20 07:32:00,SystemResetWarning,0825.8,4.99,000.00,029.8,028.4,000.0,038.3,031.4,10.9,0000.0,0006.70,0002.98,0002.32
2023-06-20 07:33:00,SystemResetWarning,0825.8,5.00,000.00,029.9,028.5,000.0,038.3,031.4,11.5,0000.0,0006.67,0002.91,0002.29
2023-06-20 07:34:00,SystemResetWarning,0825.8,4.99,000.00,029.9,028.5,000.0,038.3,031.5,12.0,0000.0,0007.31,0002.86,0002.28
2023-06-20 07:35:00,SystemResetWarning,0825.8,5.00,000.00,029.9,028.6,000.0,038.3,031.5,12.0,0000.0,0008.03,0002.93,0002.31
2023-06-20 07:36:00,SystemResetWarning,0825.9,5.00,000.00,029.9,028.6,000.0,038.4,031.5,12.2,0000.0,0009.22,0002.97,0002.32
2023-06-20 07:37:00,SystemResetWarning,0825.9,4.99,000.00,030.0,028.5,000.0,038.4,031.5,12.2,0000.0,0009.36,0003.03,0002.35
2023-06-20 07:38:00,SystemResetWarning,0825.9,5.00,000.00,030.0,026.5,000.0,038.3,031.5,12.2,0000.0,0009.46,0003.12,0002.38
2023-06-20 07:39:00,SystemResetWarning,0825.8,5.00,000.00,029.9,025.0,000.0,038.3,031.4,12.3,0000.0,0009.63,0003.14,0002.39
2023-06-20 07:40:00,SystemResetWarning,0825.8,5.01,000.00,029.9,025.1,000.0,038.3,031.2,12.4,0000.0,0009.88,0003.19,0002.43
2023-06-20 07:41:00,SystemResetWarning,0825.8,5.01,000.00,029.7,025.5,000.0,038.3,031.0,12.5,0000.0,0010.83,0003.25,0002.48
2023-06-20 07:42:00,SystemResetWarning,0825.7,5.00,000.00,029.7,025.9,000.0,038.3,031.0,12.5,0000.0,0012.34,0003.28,0002.52
2023-06-20 07:43:00,SystemResetWarning,0825.8,4.99,000.00,029.7,026.4,000.0,038.3,031.0,12.6,0000.0,0012.65,0003.34,0002.57
2023-06-20 07:44:00,SystemResetWarning,0825.8,4.99,000.00,029.7,026.7,000.0,038.3,031.0,12.7,0000.0,0013.09,0003.38,0002.60
2023-06-20 07:45:00,SystemResetWarning,0825.9,5.00,000.00,029.7,027.1,000.0,038.3,031.1,12.7,0000.0,0013.13,0003.41,0002.64
2023-06-20 07:46:00,SystemResetWarning,0825.9,5.00,000.00,029.7,027.3,000.0,038.3,031.2,12.9,0000.0,0013.00,0003.42,0002.67
2023-06-20 07:47:00,SystemResetWarning,0825.9,5.01,000.00,029.7,027.6,000.0,038.3,031.2,12.9,0000.0,0012.50,0003.44,0002.68
2023-06-20 07:48:00,SystemResetWarning,0825.9,5.00,000.00,029.7,027.7,000.0,038.3,031.2,12.8,0000.0,0014.28,0003.49,0002.70
2023-06-20 07:49:00,SystemResetWarning,0825.9,5.00,000.00,029.7,027.9,000.0,038.3,031.2,12.7,0000.0,0014.90,0003.50,0002.71
2023-06-20 07:50:00,SystemResetWarning,0825.9,4.99,000.00,029.7,028.0,000.0,038.3,031.3,12.7,0000.0,0015.76,0003.50,0002.73
2023-06-20 07:51:00,SystemResetWarning,0825.9,5.00,000.00,029.8,028.1,000.0,038.3,031.3,12.8,0000.0,0015.72,0003.52,0002.74
2023-06-20 07:52:00,SystemResetWarning,0825.9,4.99,000.00,029.8,028.2,000.0,038.3,031.3,12.6,0000.0,0014.52,0003.52,0002.75
2023-06-20 07:53:00,SystemResetWarning,0825.9,5.00,000.00,029.8,028.2,000.0,038.3,031.4,12.8,0000.0,0013.01,0003.55,0002.76
2023-06-20 07:54:00,SystemResetWarning,0825.9,4.99,000.00,029.8,028.3,000.0,038.3,031.4,13.1,0000.0,0012.89,0003.58,0002.76
2023-06-20 07:55:00,SystemResetWarning,0825.9,5.00,000.00,029.9,028.4,000.0,038.3,031.4,13.4,0000.0,0012.91,0003.59,0002.76
2023-06-20 07:56:00,SystemResetWarning,0825.9,5.00,000.00,029.9,028.4,000.0,038.3,031.5,13.7,0000.0,0012.32,0003.59,0002.79
2023-06-20 07:57:00,SystemResetWarning,0825.9,5.01,000.00,029.9,028.5,000.0,038.4,031.5,15.4,0000.0,0011.91,0003.58,0002.80
2023-06-20 07:58:00,SystemResetWarning,0825.9,5.01,000.00,029.9,028.5,000.0,038.4,031.5,13.8,0000.0,0011.85,0003.60,0002.84
2023-06-20 07:59:00,SystemResetWarning,0825.9,5.01,000.00,030.0,028.5,000.0,038.4,031.5,13.0,0000.0,0010.22,0003.64,0002.94
